Location: Csernalj
(48.1333°N, 20.7000°E)
Time: 22:25:52
(UTC+00:00)

Daily predictions for brighter satellites

Satellite Brightness Start Highest point End
(mag) Time Altitude Azimuth Time Altitude Azimuth Time Altitude Azimuth
SKYMED 2 3.7 16:56:45 10° NNE 17:01:07 85° WNW 17:05:28 10° SSW
USA 238 DEB 3.9 16:58:24 10° NW 17:05:37 78° NE 17:13:08 10° SE
USA 238 3.9 16:58:30 10° NW 17:05:43 78° NE 17:13:14 10° SE
Cosmos 1125 Rocket 4.3 17:01:37 10° SSE 17:06:12 30° E 17:10:48 10° NE
Cosmos 1536 Rocket 4.2 17:02:23 10° N 17:06:32 36° ENE 17:10:40 10° SE
Abrixas rocket 1.8 17:05:19 10° W 17:08:10 82° SSW 17:10:55 11° ESE
CZ-4B R/B 4.4 17:06:31 10° NNW 17:09:15 22° WNW 17:11:57 10° WSW
CREW DRAGON DEMO-1 DEB 2.9 17:06:28 10° WNW 17:09:29 69° NNE 17:12:23 11° ESE
Cosmos 1464 Rocket 4.1 17:04:25 10° SSE 17:10:21 54° E 17:16:23 10° NNE
Cosmos 2150 Rocket 4.3 17:07:35 10° S 17:12:47 50° ESE 17:18:03 10° NNE
CZ-2C R/B 3.2 17:08:50 10° SSE 17:14:11 71° ENE 17:19:51 10° N
SJ-6B 4.4 17:12:53 10° ESE 17:15:20 17° ENE 17:17:51 10° NNE
SJ-11-01 4.4 17:10:52 10° SSE 17:15:28 57° ENE 17:20:05 10° N
CZ-4 R/B 1.8 17:12:48 10° S 17:17:00 73° WSW 17:21:11 10° NNW
CZ-2D R/B 4.0 17:13:50 10° S 17:17:40 57° W 17:21:31 10° NNW
Cosmos 1782 Rocket 4.4 17:14:28 10° SSW 17:18:48 56° WNW 17:23:13 10° N
Okean-O 3.2 17:14:57 10° S 17:19:20 61° WSW 17:23:45 10° NNW
Cosmos 1674 3.5 17:17:47 10° N 17:21:17 31° ENE 17:24:43 10° SE
MOS 1 Rocket 3.5 17:19:45 10° NNE 17:23:53 39° E 17:27:55 10° SSE
In-Cosmos 22 4.0 17:23:22 10° N 17:28:43 82° ENE 17:34:07 10° SSE
ARGOS 3.2 17:24:08 10° SSE 17:29:22 57° ENE 17:34:39 10° N
NOSS 3-2 (A) 4.2 17:22:38 10° NW 17:30:07 78° SW 17:38:34 10° SSE
NOSS 2-2 (C) 4.1 17:27:30 10° WSW 17:30:56 48° NW 17:34:54 10° NE
Cosmos 1048 Rocket 4.0 17:25:41 10° NNW 17:31:03 87° ENE 17:36:26 10° SSE
CZ-2C R/B 3.5 17:27:04 10° NE 17:31:51 28° E 17:36:38 10° SSE
FREGAT/IRIS 4.1 17:33:45 16° ENE 17:33:45 16° ENE 17:35:17 10° NNE
Cosmos 2082 Rocket 3.8 17:32:33 10° N 17:36:29 19° NE 17:39:26 13° ENE
Cosmos 1891 Rocket 4.4 17:30:27 10° S 17:36:34 87° E 17:42:38 10° N
DMSP B5D1-3 4.4 17:32:35 10° NNE 17:37:43 81° ESE 17:42:49 10° SSW
Cosmos 1340 Rocket 4.5 17:39:40 16° ENE 17:39:40 16° ENE 17:41:28 10° NE
Cosmos 2151 Rocket 3.5 17:34:57 10° S 17:39:24 69° E 17:43:54 10° NNE
Cosmos 1733 4.3 17:38:59 15° SE 17:41:11 24° E 17:44:19 10° NE
Lacrosse 5 rocket 3.1 17:37:50 10° NW 17:41:31 26° N 17:45:05 11° ENE
Cosmos 494 Rocket 4.0 17:38:47 10° NNW 17:44:05 75° ENE 17:49:21 10° SSE
HJ-1C 3.5 17:40:58 10° S 17:44:14 72° WSW 17:47:33 10° NNW
Meteor 1-15 Rocket 4.3 17:39:27 10° S 17:44:57 55° E 17:50:34 10° NNE
Ariane Rocket 3.1 17:47:53 12° SE 17:52:32 54° ENE 17:57:30 10° N
Cosmos 1805 3.5 17:48:57 10° SSE 17:52:41 45° E 17:56:26 10° NNE
Nadezhda 4 Rocket 3.9 17:46:50 10° N 17:53:00 87° E 17:59:08 10° S
H-2A R/B 2.2 17:48:32 10° S 17:53:31 72° WSW 17:58:41 10° NNW
SL-08 RB Rocket 3.7 17:50:04 10° SSE 17:54:36 66° ENE 17:59:06 10° N
OBJECT-B 2.2 17:55:36 22° ENE 17:55:36 22° ENE 17:57:55 10° NNE
Cosmos 1269 Rocket 4.2 17:50:20 10° NNW 17:55:35 55° ENE 17:59:06 20° SE
Exosat Rocket 3.5 17:53:26 10° S 17:58:44 62° ESE 18:03:41 10° NNE
Cosmos 2263 Rocket 4.4 17:55:54 10° W 18:00:27 25° NW 18:05:03 10° N
KORONAS-FOTON 3.8 17:58:42 10° N 18:02:39 89° E 18:06:25 11° S
MetOp-A 4.3 17:58:58 17° SE 18:02:56 55° ENE 18:08:09 10° N
COSMOS 2406 3.5 17:57:27 10° NNW 18:02:57 48° NE 18:05:50 26° ESE
Cosmos 1844 Rocket 2.8 17:58:43 10° SSW 18:04:17 78° WNW 18:09:56 10° NNE
Cosmos 1626 2.5 18:03:21 10° N 18:06:55 42° ENE 18:07:28 39° E
NOSS 3-2 (C) 4.3 18:00:52 10° NW 18:08:21 72° SW 18:16:08 13° SSE
Cosmos 2278 Rocket 3.3 18:03:53 10° SSE 18:09:59 24° ENE 18:13:09 10° NE
IRS-1A Rocket 4.3 18:04:55 10° SSE 18:10:44 78° ENE 18:16:34 10° NNW
Cosmos 2034 Rocket 4.2 18:05:03 10° SSW 18:11:25 78° W 18:17:47 10° N
Cosmos 1844 3.7 18:06:02 10° SSW 18:11:44 84° WNW 18:17:24 10° NNE
USA 186 1.7 18:11:03 29° S 18:12:36 84° WSW 18:15:55 10° NNW
Meteor 2-5 Rocket 3.7 18:07:38 10° N 18:13:20 75° ENE 18:18:15 15° SSE
NOSS 3-4 (A) 3.4 18:07:37 10° SSW 18:13:21 56° ESE 18:19:29 10° NE
NOSS 3-4 (C) 3.4 18:07:44 10° SSW 18:13:28 55° ESE 18:19:35 10° NE
ISS -2.9 18:10:28 10° W 18:13:45 46° N 18:14:49 33° NE
NOSS 5 (C) 4.5 18:11:25 10° NW 18:14:34 75° SW 18:15:44 40° SSE
Meteor 1-24 Rocket 3.7 18:10:24 10° N 18:15:56 62° ENE 18:19:24 24° SSE
Lacrosse 4 Rocket 2.6 18:12:48 10° NNW 18:16:13 25° NE 18:16:33 25° NE
Meteor 2-13 Rocket 4.4 18:11:23 10° N 18:17:35 89° E 18:23:43 10° S
Okean 1 Rocket 3.0 18:18:49 10° S 18:23:19 89° WNW 18:27:50 10° N
Resurs 01 Rocket 2.3 18:25:51 36° ENE 18:25:52 36° ENE 18:29:57 10° N
SL-14 R/B 3.2 18:22:04 10° N 18:26:00 63° E 18:26:27 58° ESE
CENTAUR R/B 3.6 18:19:25 10° NW 18:27:23 63° WSW 18:34:46 15° SSE
Cosmos 1833 Rocket 2.8 18:22:53 10° NNW 18:28:29 56° ENE 18:30:12 40° ESE
Cosmos 2251 Rocket 4.2 18:27:40 10° N 18:32:38 36° ENE 18:33:15 35° ENE
Cosmos 1766 3.4 18:30:25 10° SSW 18:34:19 75° W 18:38:18 10° N
ATLAS 2AS CENTAUR R/B 2.9 18:28:06 10° SSW 18:35:59 72° SE 18:43:51 10° NE
Cosmos 1634 Rocket 3.8 18:32:55 10° S 18:39:05 81° E 18:45:20 10° N
ATLAS 3B R/B 2.7 18:33:01 10° NW 18:39:52 73° NE 18:42:35 40° ESE
SPOT 3 Rocket 3.5 18:40:10 49° SE 18:41:25 68° ENE 18:46:34 10° N
ARIANE 5 R/B 3.9 18:42:31 27° NE 18:42:31 27° NE 18:45:16 10° N
Abrixas rocket 4.2 18:40:48 10° W 18:42:11 20° WSW 18:42:11 20° WSW
Resurs 1-3 3.5 18:48:54 74° SSE 18:49:18 88° E 18:53:44 10° NNW
SJ-6B 3.7 18:48:31 33° SW 18:49:39 44° W 18:53:19 10° NNW
Cosmos 1892 Rocket 3.4 18:47:00 10° N 18:51:22 87° E 18:51:24 86° ESE
Cosmos 1655 Rocket 4.1 18:45:58 10° N 18:52:06 52° ENE 18:52:53 49° E
Cosmos 2026 Rocket 4.3 18:51:20 10° NNW 18:57:40 67° W 19:02:16 19° S
CZ-2C R/B 3.6 19:07:00 10° N 19:12:21 50° WNW 19:17:45 10° SW
Cosmos 2180 Rocket 4.4 19:12:34 65° SE 19:13:23 74° E 19:19:44 10° NNE
Cosmos 1340 Rocket 3.8 19:15:11 45° WNW 19:15:11 45° WNW 19:18:53 10° N
Cosmos 2279 Rocket 3.9 19:12:59 37° S 19:15:39 87° W 19:21:59 10° N
MetOp-B 4.1 19:17:29 72° NE 19:17:29 72° NE 19:22:30 10° NNW
Cosmos 2098 Rocket 3.7 19:14:21 10° N 19:21:09 81° E 19:21:19 80° ESE
Cosmos 2082 Rocket 2.1 19:15:50 10° NNW 19:21:17 78° NNE 19:21:17 78° NNE
Lacrosse 5 rocket 2.6 19:17:15 10° NW 19:20:43 40° N 19:20:43 40° N
Spot 2 Rocket 4.1 19:25:14 46° NNE 19:25:14 46° NNE 19:28:58 10° N
OBJECT-B 3.6 19:28:48 19° WNW 19:28:48 19° WNW 19:30:15 10° NW
Terra 3.8 19:42:50 20° NNE 19:42:50 20° NNE 19:44:38 10° N
SPOT 1/Viking Rocket 4.4 19:48:44 46° N 19:48:44 46° N 19:52:20 10° NNW
ISS -0.3 19:47:33 10° WNW 19:47:46 11° WNW 19:47:46 11° WNW
Cosmos 2278 Rocket 2.7 19:51:32 52° W 19:52:14 56° WNW 19:57:50 10° NNE
Lacrosse 4 Rocket 3.7 19:51:10 10° NW 19:52:52 23° NW 19:52:52 23° NW
Cosmos 909 Rocket 4.3 19:54:08 10° NW 19:59:55 62° W 19:59:55 62° W
Cosmos 2266 Rocket 4.2 19:55:14 10° NNW 20:00:34 62° WNW 20:00:34 62° WNW
Resurs 01 Rocket 3.7 20:03:26 25° WNW 20:03:26 25° WNW 20:06:15 10° NW
Cosmos 1833 Rocket 4.3 20:07:24 10° NW 20:11:54 27° W 20:11:54 27° W
ATLAS 2AS CENTAUR R/B 4.0 20:20:05 10° WSW 20:27:36 43° NNW 20:34:57 10° NE
ATLAS 3B R/B 4.0 20:24:16 10° NW 20:29:50 30° WSW 20:29:50 30° WSW
CZ-4C R/B 4.4 22:45:17 23° N 22:45:17 23° N 22:50:19 10° NE
SL-16 R/B 3.9 23:50:37 32° N 23:50:37 32° N 23:53:50 10° N
Resurs 1-4 Rocket 4.3 23:43:59 10° NNE 23:45:52 21° NE 23:45:52 21° NE
